This demonstration page uses our WeatherBlox Daily Observations layout. Learn more.

Left ArrowRight Arrow

Hourly Observations for April 23, 2016

Temp ( °F °C ) Dew Point ( °F °C ) Humidity (%) Winds ( mph kmh ) Pressure ( in mb ) Visibility ( mi km ) Precip ( " mm )
12:04 am 00:04 Mostly Cloudy with Mist and Fog 48 9 45 7 87 87 Calm 30.03 1017 2 2 0.00 0.00
12:09 am 00:09 Mostly Cloudy with Mist and Fog 48 8.9 45 7.2 89 89 Calm 30.03 1017 1 1 0.00 0.00
12:27 am 00:27 Mostly Cloudy with Fog 48 8.9 45 7.2 89 89 Calm 30.06 1018 1 1 0.00 0.00
12:37 am 00:37 Mostly Cloudy with Mist and Fog 48 8.9 45 7.2 89 89 Calm 30.06 1018 1 1 0.00 0.00
12:44 am 00:44 Mostly Cloudy with Mist and Fog 48 9 45 7 87 87 Calm 30.06 1018 1 2 0.00 0.00
12:51 am 00:51 Cloudy with Mist and Fog 46 8 45 7 93 93 Calm 30.06 1018 2 3 0.00 0.00
12:53 am 00:53 Cloudy with Mist and Fog 47 8.3 44 6.7 90 90 Calm 30.06 1018 3 5 0.00 0.00
12:58 am 00:58 Cloudy with Mist and Fog 46 8 45 7 93 93 Calm 30.06 1018 3 4 0.00 0.00
1:07 am 01:07 Cloudy with Mist and Fog 47 8.3 44 6.7 90 90 W 3 6 30.06 1018 2 2 0.00 0.00
1:19 am 01:19 Cloudy with Mist and Fog 47 8.3 44 6.7 90 90 WNW 3 6 30.09 1019 1 1 0.00 0.00
1:34 am 01:34 Mostly Cloudy with Fog 46 8 45 7 93 93 WNW 3 6 30.09 1019 0 0 0.00 0.00
1:45 am 01:45 Mostly Cloudy with Fog 47 8.3 45 7.2 93 93 WNW 3 6 30.09 1019 0 0 0.00 0.00
1:53 am 01:53 Mostly Cloudy with Fog 47 8.3 45 7.2 93 93 Calm 30.09 1019 0 0 0.00 0.00
2:00 am 02:00 Mostly Cloudy with Fog 46 8 45 7 93 93 Calm 30.09 1019 0 0 0.00 0.00
2:35 am 02:35 Mostly Cloudy with Fog 47 8.3 44 6.7 90 90 Calm 30.09 1019 1 1 0.00 0.00
2:51 am 02:51 Cloudy with Fog 48 9 45 7 87 87 Calm 30.12 1020 1 1 0.00 0.00
2:53 am 02:53 Cloudy with Fog 48 8.9 45 7.2 89 89 Calm 30.11 1020 1 1 0.00 0.00
3:12 am 03:12 Mostly Cloudy with Fog 48 9 46 8 94 94 Calm 30.12 1020 0 0 0.00 0.00
3:39 am 03:39 Mostly Cloudy with Fog 49 9.4 47 8.3 93 93 Calm 30.12 1020 1 1 0.00 0.00
3:53 am 03:53 Cloudy with Mist and Fog 49 9.4 47 8.3 93 93 Calm 30.13 1020 1 1 0.00 0.00
4:08 am 04:08 Cloudy with Mist and Fog 50 10 46 8 88 88 Calm 30.12 1020 1 1 0.00 0.00
4:31 am 04:31 Cloudy with Mist and Fog 49 9.4 47 8.3 93 93 Calm 30.15 1021 2 2 0.00 0.00
4:35 am 04:35 Cloudy with Mist and Fog 50 10 47 8.3 89 89 Calm 30.15 1021 3 5 0.00 0.00
4:43 am 04:43 Cloudy with Mist and Fog 49 9.4 47 8.3 93 93 Calm 30.15 1021 3 5 0.00 0.00
4:50 am 04:50 Cloudy with Mist and Fog 48 9 46 8 94 94 Calm 30.15 1021 3 4 0.00 0.00
4:51 am 04:51 Cloudy with Mist and Fog 48 9 46 8 94 94 Calm 30.15 1021 3 4 0.00 0.00
5:01 am 05:01 Cloudy with Mist and Fog 50 10 47 8.3 89 89 Calm 30.15 1021 3 5 0.00 0.00
5:06 am 05:06 Cloudy with Mist and Fog 50 10 46 8 88 88 Calm 30.15 1021 2 3 0.00 0.00
5:15 am 05:15 Cloudy with Mist and Fog 50 10 47 8.3 89 89 Calm 30.15 1021 1 2 0.00 0.00
5:23 am 05:23 Cloudy with Mist and Fog 50 10 47 8.3 89 89 Calm 30.15 1021 2 3 0.00 0.00
5:31 am 05:31 Cloudy with Mist and Fog 50 10 47 8.3 89 89 Calm 30.15 1021 5 8 0.00 0.00
5:53 am 05:53 Cloudy with Mist and Fog 50 10 48 8.9 93 93 Calm 30.15 1021 6 10 0.00 0.00
6:17 am 06:17 Cloudy with Mist and Fog 50 10 47 8.3 89 89 Calm 30.15 1021 2 3 0.00 0.00
6:23 am 06:23 Cloudy with Fog 50 10 47 8.3 89 89 Calm 30.15 1021 1 1 0.00 0.00
6:53 am 06:53 Mostly Cloudy with Fog 49 9.4 47 8.3 93 93 Calm 30.17 1022 0 0 0.00 0.00
7:10 am 07:10 Mostly Cloudy with Mist and Fog 50 10 46 8 88 88 WNW 3 6 30.18 1022 1 1 0.00 0.00
7:18 am 07:18 Cloudy with Mist and Fog 50 10 46 8 88 88 WNW 3 6 30.18 1022 1 2 0.00 0.00
7:35 am 07:35 Cloudy with Mist and Fog 50 10 47 8.3 89 89 WNW 3 6 30.18 1022 1 1 0.00 0.00
7:44 am 07:44 Cloudy with Mist and Fog 50 10 46 8 88 88 Calm 30.21 1023 1 2 0.00 0.00
7:53 am 07:53 Cloudy with Mist and Fog 50 10 48 8.9 93 93 WNW 3 6 30.20 1023 2 3 0.00 0.00
8:08 am 08:08 Cloudy with Mist and Fog 50 10 46 8 88 88 Calm 30.21 1023 5 8 0.00 0.00
8:53 am 08:53 Mostly Cloudy 54 12.2 48 8.9 80 80 Calm 30.19 1022 10 16 0.00 0.00
9:09 am 09:09 Cloudy 54 12.2 49 9.4 83 83 NW 5 7 30.21 1023 10 16 0.00 0.00
9:53 am 09:53 Cloudy 55 12.8 49 9.4 80 80 S 6 9 30.19 1022 10 16 0.00 0.00
10:49 am 10:49 Partly Cloudy 55 13 46 8 72 72 Calm 30.21 1023 10 16 0.00 0.00
10:53 am 10:53 Mostly Cloudy 56 13.3 48 8.9 75 75 VRB 5 7 30.19 1023 10 16 0.00 0.00
11:53 am 11:53 Partly Cloudy 60 15.6 47 8.3 62 62 VRB 3 6 30.19 1022 10 16 0.00 0.00
12:53 pm 12:53 Mostly Cloudy 62 16.7 45 7.2 54 54 ENE 3 6 30.18 1022 10 16 0.00 0.00
1:53 pm 13:53 Partly Cloudy 64 17.8 46 7.8 52 52 Calm 30.16 1021 10 16 0.00 0.00
2:53 pm 14:53 Mostly Sunny 65 18.3 44 6.7 47 47 S 5 7 30.14 1021 10 16 0.00 0.00
3:53 pm 15:53 Mostly Sunny 67 19.4 45 7.2 45 45 Calm 30.12 1020 10 16 0.00 0.00
4:53 pm 16:53 Mostly Sunny 67 19.4 47 8.3 49 49 VRB 6 9 30.10 1019 10 16 0.00 0.00
5:53 pm 17:53 Mostly Cloudy 66 18.9 47 8.3 50 50 SSW 5 7 30.09 1019 10 16 0.00 0.00
6:53 pm 18:53 Mostly Cloudy 65 18.3 48 8.9 54 54 SSW 6 9 30.09 1019 10 16 0.00 0.00
7:53 pm 19:53 Sunny 64 17.8 49 9.4 58 58 SW 3 6 30.09 1019 10 16 0.00 0.00
8:53 pm 20:53 Partly Cloudy 63 17.2 50 10 63 63 Calm 30.09 1019 10 16 0.00 0.00
9:53 pm 21:53 Mostly Cloudy 60 15.6 52 11.1 75 75 Calm 30.09 1019 10 16 0.00 0.00
10:53 pm 22:53 Cloudy 61 16.1 53 11.7 75 75 Calm 30.08 1019 10 16 0.00 0.00
11:53 pm 23:53 Partly Cloudy 60 15.6 53 11.7 78 78 Calm 30.07 1018 10 16 0.00 0.00

Powered by AerisWeather